TimeCST,TemperatureF,Dew PointF,Humidity,Sea Level PressureIn,VisibilityMPH,Wind Direction,Wind SpeedMPH,Gust SpeedMPH,PrecipitationIn,Events,Conditions,WindDirDegrees,DateUTC
12:15 AM,35.6,35.6,100,30.37,10.0,Calm,Calm,-,N/A,,Clear,0,2013-01-19 06:15:00
12:35 AM,35.6,33.8,93,30.37,7.0,Calm,Calm,-,N/A,,Clear,0,2013-01-19 06:35:00
1:15 AM,37.4,35.6,93,30.38,10.0,Calm,Calm,-,N/A,,Clear,0,2013-01-19 07:15:00
1:35 AM,37.4,35.6,93,30.38,10.0,NNE,5.8,-,N/A,,Clear,20,2013-01-19 07:35:00
1:55 AM,39.2,35.6,87,30.38,7.0,NNE,5.8,-,N/A,,Clear,20,2013-01-19 07:55:00
2:15 AM,37.4,35.6,93,30.37,10.0,NE,4.6,-,N/A,,Clear,40,2013-01-19 08:15:00
2:35 AM,39.2,35.6,87,30.37,10.0,NNE,3.5,-,N/A,,Clear,30,2013-01-19 08:35:00
2:55 AM,39.2,35.6,87,30.37,10.0,Calm,Calm,-,N/A,,Clear,0,2013-01-19 08:55:00
3:15 AM,37.4,35.6,93,30.37,7.0,NNE,3.5,-,N/A,,Clear,30,2013-01-19 09:15:00
3:35 AM,39.2,35.6,87,30.37,7.0,NNE,3.5,-,N/A,,Clear,30,2013-01-19 09:35:00
3:55 AM,37.4,35.6,93,30.36,7.0,NNE,4.6,-,N/A,,Clear,30,2013-01-19 09:55:00
4:15 AM,39.2,35.6,87,30.36,10.0,NNE,4.6,-,N/A,,Mostly Cloudy,30,2013-01-19 10:15:00
4:35 AM,41.0,35.6,81,30.36,10.0,NNE,5.8,-,N/A,,Overcast,30,2013-01-19 10:35:00
5:15 AM,41.0,35.6,81,30.36,10.0,NE,3.5,-,N/A,,Mostly Cloudy,50,2013-01-19 11:15:00
5:35 AM,39.2,35.6,87,30.36,10.0,NE,4.6,-,N/A,,Scattered Clouds,50,2013-01-19 11:35:00
5:55 AM,41.0,35.6,81,30.36,7.0,NE,4.6,-,N/A,,Scattered Clouds,40,2013-01-19 11:55:00
7:15 AM,41.0,35.6,81,30.38,7.0,NNE,5.8,-,N/A,,Scattered Clouds,30,2013-01-19 13:15:00
7:35 AM,42.8,35.6,76,30.39,7.0,ENE,5.8,-,N/A,,Scattered Clouds,60,2013-01-19 13:35:00
9:55 AM,57.2,37.4,48,30.39,7.0,ENE,9.2,-,N/A,,Clear,60,2013-01-19 15:55:00
10:15 AM,59.0,37.4,45,30.39,7.0,ENE,9.2,-,N/A,,Clear,60,2013-01-19 16:15:00
10:35 AM,59.0,37.4,45,30.39,7.0,East,6.9,-,N/A,,Clear,80,2013-01-19 16:35:00
11:15 AM,62.6,41.0,45,30.36,10.0,NE,4.6,-,N/A,,Clear,50,2013-01-19 17:15:00
11:35 AM,62.6,41.0,45,30.35,7.0,NNE,5.8,-,N/A,,Clear,30,2013-01-19 17:35:00
12:15 PM,64.4,42.8,45,30.33,7.0,North,3.5,-,N/A,,Clear,10,2013-01-19 18:15:00
12:55 PM,64.4,42.8,45,30.30,7.0,ESE,4.6,-,N/A,,Clear,120,2013-01-19 18:55:00
1:15 PM,66.2,42.8,43,30.30,7.0,Calm,Calm,-,N/A,,Clear,0,2013-01-19 19:15:00
1:55 PM,64.4,42.8,45,30.28,7.0,Calm,Calm,-,N/A,,Clear,0,2013-01-19 19:55:00
2:15 PM,62.6,44.6,52,30.27,7.0,WSW,5.8,-,N/A,,Clear,240,2013-01-19 20:15:00
2:35 PM,62.6,44.6,52,30.27,10.0,West,4.6,-,N/A,,Clear,270,2013-01-19 20:35:00
2:55 PM,62.6,44.6,52,30.27,7.0,WSW,4.6,-,N/A,,Clear,250,2013-01-19 20:55:00
3:15 PM,60.8,44.6,55,30.26,10.0,West,3.5,-,N/A,,Clear,260,2013-01-19 21:15:00
3:35 PM,60.8,42.8,52,30.26,7.0,West,5.8,-,N/A,,Clear,260,2013-01-19 21:35:00
3:55 PM,60.8,42.8,52,30.27,10.0,Calm,Calm,-,N/A,,Clear,0,2013-01-19 21:55:00
4:15 PM,60.8,42.8,52,30.27,10.0,Calm,Calm,-,N/A,,Clear,0,2013-01-19 22:15:00
4:35 PM,60.8,44.6,55,30.26,10.0,Calm,Calm,-,N/A,,Clear,0,2013-01-19 22:35:00
4:55 PM,59.0,44.6,59,30.26,7.0,Calm,Calm,-,N/A,,Clear,0,2013-01-19 22:55:00
5:15 PM,57.2,46.4,67,30.26,7.0,Calm,Calm,-,N/A,,Clear,0,2013-01-19 23:15:00
5:55 PM,53.6,44.6,72,30.25,10.0,Calm,Calm,-,N/A,,Clear,0,2013-01-19 23:55:00
6:15 PM,51.8,46.4,82,30.26,10.0,Calm,Calm,-,N/A,,Clear,0,2013-01-20 00:15:00
6:55 PM,46.4,44.6,93,30.27,10.0,Calm,Calm,-,N/A,,Clear,0,2013-01-20 00:55:00
7:15 PM,46.4,44.6,93,30.29,10.0,Calm,Calm,-,N/A,,Clear,0,2013-01-20 01:15:00
7:35 PM,44.6,42.8,93,30.27,7.0,Calm,Calm,-,N/A,,Clear,0,2013-01-20 01:35:00
7:55 PM,44.6,44.6,100,30.27,10.0,Calm,Calm,-,N/A,,Clear,0,2013-01-20 01:55:00
8:15 PM,44.6,42.8,93,30.27,10.0,Calm,Calm,-,N/A,,Clear,0,2013-01-20 02:15:00
8:35 PM,42.8,41.0,93,30.27,7.0,Calm,Calm,-,N/A,,Clear,0,2013-01-20 02:35:00
8:55 PM,42.8,42.8,100,30.26,10.0,Calm,Calm,-,N/A,,Clear,0,2013-01-20 02:55:00
9:15 PM,42.8,41.0,93,30.27,10.0,Calm,Calm,-,N/A,,Clear,0,2013-01-20 03:15:00
9:35 PM,42.8,42.8,100,30.27,7.0,Calm,Calm,-,N/A,,Clear,0,2013-01-20 03:35:00
9:55 PM,42.8,42.8,100,30.26,4.0,Calm,Calm,-,N/A,,Clear,0,2013-01-20 03:55:00
10:15 PM,41.0,41.0,100,30.26,7.0,Calm,Calm,-,N/A,,Clear,0,2013-01-20 04:15:00
10:35 PM,42.8,42.8,100,30.26,7.0,Calm,Calm,-,N/A,,Clear,0,2013-01-20 04:35:00
10:55 PM,42.8,41.0,93,30.26,10.0,Calm,Calm,-,N/A,,Clear,0,2013-01-20 04:55:00
11:15 PM,41.0,41.0,100,30.26,5.0,Calm,Calm,-,N/A,,Clear,0,2013-01-20 05:15:00
11:35 PM,41.0,41.0,100,30.26,3.0,Calm,Calm,-,N/A,,Clear,0,2013-01-20 05:35:00
11:55 PM,41.0,41.0,100,30.26,5.0,Calm,Calm,-,N/A,,Clear,0,2013-01-20 05:55:00